Location: Cutler
(25.6150°N, 80.3110°W)
Time: 11:10:33
(UTC-05:00)

N. Korean satellite - Pass Details

Date: 16 November 2017
Orbit: 460 x 515 km, 97.2° (Epoch: 18 November)

Event Time Altitude Azimuth Distance (km) Brightness Sun altitude
Rises 17:55:43 0° 143° (SE) 2,470 10.0 -5.8°
Reaches altitude 10° 17:58:01 10° 128° (SE) 1,602 8.9 -6.3°
Maximum altitude 18:00:46 23° 74° (ENE) 1,038 7.6 -6.9°
Drops below altitude 10° 18:03:33 10° 21° (NNE) 1,621 8.9 -7.5°
Sets 18:05:53 0° 6° (N) 2,508 9.9 -8.0°
